Weather History for Spokane Fairchild, WA

Change the Weather History Date:

Thursday, January 31, 2013

  Actual Average Record
Temperature  
Mean Temperature 34 °F -  
Max Temperature 37 °F 35 °F 50 °F (2003)
Min Temperature 32 °F 24 °F 13 °F (2011)
Degree Days  
Heating Degree Days 30    
Moisture  
Dew Point 34 °F    
Average Humidity 99    
Maximum Humidity 100    
Minimum Humidity 81    
Precipitation  
Precipitation 0.00 in - - ()
Snow  
Snow 0.00 in - - ()
Snow Depth 2.00 in    
Sea Level Pressure  
Sea Level Pressure 30.22 in    
Wind  
Wind Speed 8 mph (SSW)    
Max Wind Speed 14 mph    
Max Gust Speed -    
Visibility 4 miles    
Events Fog , Rain    
Averages and records for this station are not official NWS values.
T = Trace of Precipitation, MM = Missing Value Source: NWS Daily Summary

Daily Weather History Graph

Daily Weather History Graph

Search for Another Location

Airport:

Trip Planner

Search our weather history database for the weather conditions in past years. The results will help you decide how hot, cold, wet, or windy it might be!

Date:

Astronomy

Jan. 31, 2013 Rise Set
Actual Time 7:18 AM PST 4:50 PM PST
Civil Twilight 6:44 AM PST 5:23 PM PST
Nautical Twilight 6:07 AM PST 6:00 PM PST
Astronomical Twilight 5:31 AM PST 6:37 PM PST
Moon 10:25 PM PST (1/31) 8:55 AM PST (1/31)
Length of Visible Light 10h 38m
Length of Day
9h 32m
Waning Gibbous, 79% of the Moon is Illuminated
Jan 31
Waning Gibbous
Feb 3
Last Quarter
Feb 9
New
Feb 17
First Quarter
Feb 25
Full

Hourly Weather History & Observations

Time (PST) Temp. Windchill Dew Point Humidity Pressure Visibility Wind Dir Wind Speed Gust Speed Precip Events Conditions
12:03 AM 32.0 °F 25.6 °F 32.0 °F 100% 30.20 in 4.0 mi SSW 6.9 mph - N/A   Overcast
12:14 AM 32.0 °F 25.6 °F 32.0 °F 100% 30.20 in 7.0 mi South 6.9 mph - N/A   Overcast
12:15 AM 32.0 °F 26.4 °F 32.0 °F 100% 30.20 in 5.0 mi South 5.8 mph - N/A   Overcast
12:20 AM 32.0 °F 25.6 °F 32.0 °F 100% 30.20 in 1.5 mi South 6.9 mph - N/A   Overcast
12:24 AM 32.0 °F 25.6 °F 32.0 °F 100% 30.20 in 0.8 mi SSE 6.9 mph - N/A   Overcast
12:44 AM 32.0 °F 24.8 °F 32.0 °F 100% 30.20 in 0.5 mi South 8.1 mph - N/A Fog Fog
12:58 AM 32.0 °F 24.8 °F 32.0 °F 100% 30.28 in 0.5 mi South 8.1 mph - 0.00 in Fog Fog
1:18 AM 32.0 °F 25.6 °F 32.0 °F 100% 30.21 in 0.5 mi South 6.9 mph - N/A Fog Fog
1:28 AM 32.0 °F 25.6 °F 32.0 °F 100% 30.21 in 0.5 mi South 6.9 mph - N/A Fog Fog
1:58 AM 32.0 °F 26.4 °F 32.0 °F 100% 30.28 in 0.5 mi South 5.8 mph - N/A Fog Fog
2:03 AM 32.0 °F 24.8 °F 32.0 °F 100% 30.21 in 0.8 mi South 8.1 mph - N/A   Mist
2:08 AM 32.0 °F 24.8 °F 32.0 °F 100% 30.21 in 0.8 mi South 8.1 mph - N/A   Mist
2:18 AM 32.0 °F 24.2 °F 32.0 °F 100% 30.21 in 1.0 mi South 9.2 mph - N/A   Mist
2:23 AM 32.0 °F 24.2 °F 32.0 °F 100% 30.21 in 1.0 mi South 9.2 mph - N/A   Mist
2:24 AM 32.0 °F 24.2 °F 32.0 °F 100% 30.21 in 1.0 mi South 9.2 mph - N/A   Unknown
2:40 AM 32.0 °F 24.8 °F 32.0 °F 100% 30.21 in 1.0 mi South 8.1 mph - N/A   Mist
2:45 AM 32.0 °F 26.4 °F 32.0 °F 100% 30.21 in 1.0 mi South 5.8 mph - N/A   Mist
2:50 AM 32.0 °F 24.8 °F 32.0 °F 100% 30.21 in 1.0 mi South 8.1 mph - N/A   Mist
2:58 AM 32.0 °F 23.6 °F 32.0 °F 100% 30.28 in 1.0 mi South 10.4 mph - 0.00 in   Mist
3:03 AM 32.0 °F 23.0 °F 32.0 °F 100% 30.21 in 1.0 mi South 11.5 mph - N/A   Mist
3:08 AM 32.0 °F 24.2 °F 32.0 °F 100% 30.21 in 1.0 mi South 9.2 mph - N/A   Mist
3:13 AM 32.0 °F 23.6 °F 32.0 °F 100% 30.21 in 0.8 mi South 10.4 mph - N/A   Mist
3:38 AM 32.0 °F 24.2 °F 32.0 °F 100% 30.21 in 1.0 mi SSW 9.2 mph - N/A   Mist
3:43 AM 32.0 °F 23.6 °F 32.0 °F 100% 30.21 in 1.2 mi SSW 10.4 mph - N/A   Overcast
3:58 AM 32.0 °F 24.2 °F 32.0 °F 100% 30.28 in 1.5 mi SSW 9.2 mph - N/A   Overcast
4:01 AM 32.0 °F 24.2 °F 32.0 °F 100% 30.21 in 1.8 mi SSW 9.2 mph - N/A   Overcast
4:11 AM 32.0 °F 23.6 °F 32.0 °F 100% 30.21 in 1.5 mi SSW 10.4 mph - N/A   Overcast
4:16 AM 33.8 °F 26.4 °F 32.0 °F 93% 30.21 in 1.5 mi SSW 9.2 mph - N/A   Light Drizzle
4:21 AM 32.0 °F 24.2 °F 32.0 °F 100% 30.21 in 1.8 mi SSW 9.2 mph - N/A   Light Drizzle
4:26 AM 32.0 °F 24.8 °F 32.0 °F 100% 30.21 in 2.5 mi SSW 8.1 mph - N/A   Light Drizzle
4:31 AM 32.0 °F 24.2 °F 32.0 °F 100% 30.21 in 4.0 mi SW 9.2 mph - N/A   Light Drizzle
4:39 AM 32.0 °F 25.6 °F 32.0 °F 100% 30.21 in 5.0 mi SSW 6.9 mph - N/A   Haze
4:58 AM 33.8 °F 29.6 °F 32.0 °F 93% 30.28 in 3.0 mi South 4.6 mph - 0.00 in   Overcast
5:20 AM 32.0 °F 28.7 °F 32.0 °F 100% 30.21 in 4.0 mi SSE 3.5 mph - N/A Rain Light Rain
5:30 AM 32.0 °F 27.5 °F 32.0 °F 100% 30.21 in 1.8 mi South 4.6 mph - N/A Rain Light Rain
5:39 AM 32.0 °F 27.5 °F 32.0 °F 100% 30.21 in 2.0 mi South 4.6 mph - N/A   Overcast
5:44 AM 32.0 °F 27.5 °F 32.0 °F 100% 30.21 in 3.0 mi South 4.6 mph - N/A   Overcast
5:58 AM 32.0 °F - 32.0 °F 100% 30.29 in 3.0 mi SE 2.3 mph - 0.00 in   Overcast
6:13 AM 32.0 °F 28.7 °F 32.0 °F 100% 30.21 in 2.5 mi South 3.5 mph - N/A   Overcast
6:18 AM 32.0 °F 28.7 °F 32.0 °F 100% 30.21 in 1.8 mi South 3.5 mph - N/A   Overcast
6:23 AM 32.0 °F 27.5 °F 32.0 °F 100% 30.21 in 1.0 mi South 4.6 mph - N/A   Mist
6:28 AM 32.0 °F 27.5 °F 32.0 °F 100% 30.22 in 0.8 mi South 4.6 mph - N/A   Mist
6:43 AM 32.0 °F 27.5 °F 32.0 °F 100% 30.21 in 0.5 mi South 4.6 mph - N/A Fog Fog
6:53 AM 32.0 °F 25.6 °F 32.0 °F 100% 30.21 in 0.5 mi South 6.9 mph - N/A Fog Fog
6:58 AM 32.0 °F 26.4 °F 32.0 °F 100% 30.28 in 0.5 mi South 5.8 mph - N/A Fog Fog
6:59 AM 32.0 °F 27.5 °F 32.0 °F 100% 30.21 in 0.2 mi South 4.6 mph - N/A   Unknown
7:04 AM 32.0 °F 27.5 °F 32.0 °F 100% 30.21 in 0.2 mi South 4.6 mph - N/A   Unknown
7:09 AM 32.0 °F 27.5 °F 32.0 °F 100% 30.21 in 0.2 mi South 4.6 mph - N/A   Unknown
7:14 AM 32.0 °F 27.5 °F 32.0 °F 100% 30.21 in 0.2 mi South 4.6 mph - N/A Fog Fog
7:19 AM 32.0 °F 27.5 °F 32.0 °F 100% 30.21 in 0.2 mi South 4.6 mph - N/A Fog Fog
7:24 AM 33.8 °F 28.6 °F 33.8 °F 100% 30.21 in 0.1 mi South 5.8 mph - N/A Fog Fog
7:29 AM 33.8 °F 28.6 °F 33.8 °F 100% 30.21 in 0.2 mi South 5.8 mph - N/A   Unknown
7:58 AM 33.8 °F 30.8 °F 33.8 °F 100% 30.30 in 0.2 mi South 3.5 mph - N/A Fog Fog
8:58 AM 35.6 °F 29.2 °F 35.6 °F 100% 30.30 in 0.2 mi South 8.1 mph - N/A Fog Fog
9:18 AM 35.6 °F 28.6 °F 35.6 °F 100% 30.22 in 0.2 mi South 9.2 mph - N/A Fog Fog
9:28 AM 35.6 °F 29.2 °F 35.6 °F 100% 30.22 in 0.2 mi South 8.1 mph - N/A   Unknown
9:38 AM 35.6 °F 28.0 °F 35.6 °F 100% 30.22 in 0.2 mi South 10.4 mph - N/A Fog Fog
9:43 AM 35.6 °F 27.5 °F 35.6 °F 100% 30.22 in 0.2 mi South 11.5 mph - N/A Fog Fog
9:58 AM 35.6 °F 27.1 °F 35.6 °F 100% 30.30 in 0.5 mi SSW 12.7 mph - N/A   Unknown
10:03 AM 35.6 °F 28.0 °F 35.6 °F 100% 30.22 in 0.8 mi SSW 10.4 mph - N/A   Unknown
10:08 AM 35.6 °F 28.0 °F 35.6 °F 100% 30.22 in 2.0 mi SSW 10.4 mph - N/A   Overcast
10:18 AM 35.6 °F 30.7 °F 35.6 °F 100% 30.23 in 4.0 mi SW 5.8 mph - N/A   Overcast
10:23 AM 35.6 °F 31.7 °F 35.6 °F 100% 30.23 in 7.0 mi SW 4.6 mph - N/A   Overcast
10:58 AM 35.6 °F 28.0 °F 35.6 °F 100% 30.30 in 10.0 mi SSW 10.4 mph - N/A   Overcast
11:23 AM 35.6 °F 27.5 °F 35.6 °F 100% 30.22 in 10.0 mi SSW 11.5 mph - N/A   Overcast
11:33 AM 35.6 °F 29.9 °F 35.6 °F 100% 30.22 in 10.0 mi SSW 6.9 mph - N/A   Overcast
11:58 AM 37.4 °F 30.8 °F 35.6 °F 93% 30.28 in 10.0 mi SSW 9.2 mph - N/A   Overcast
12:23 PM 35.6 °F 28.6 °F 35.6 °F 100% 30.21 in 10.0 mi SSW 9.2 mph - N/A   Overcast
12:58 PM 37.4 °F 32.1 °F 32.0 °F 81% 30.28 in 10.0 mi SSW 6.9 mph - 0.00 in   Overcast
1:28 PM 35.6 °F 28.6 °F 35.6 °F 100% 30.20 in 10.0 mi SSW 9.2 mph - N/A   Overcast
1:58 PM 37.4 °F 32.8 °F 37.4 °F 100% 30.27 in 10.0 mi SSW 5.8 mph - N/A   Overcast
2:03 PM 37.4 °F 32.8 °F 37.4 °F 100% 30.19 in 10.0 mi SSW 5.8 mph - N/A   Overcast
2:08 PM 37.4 °F 30.8 °F 37.4 °F 100% 30.20 in 10.0 mi SSW 9.2 mph - N/A   Overcast
2:23 PM 37.4 °F 30.3 °F 37.4 °F 100% 30.19 in 10.0 mi SSW 10.4 mph - N/A   Mostly Cloudy
2:58 PM 37.4 °F 30.3 °F 37.4 °F 100% 30.27 in 10.0 mi SSW 10.4 mph - N/A   Mostly Cloudy
3:50 PM 37.4 °F 32.8 °F 37.4 °F 100% 30.20 in 10.0 mi SSW 5.8 mph - N/A   Overcast
3:58 PM 37.0 °F 31.6 °F 37.0 °F 100% 30.26 in 10.0 mi SW 6.9 mph - 0.00 in Rain Light Rain
4:06 PM 37.4 °F 32.1 °F 37.4 °F 100% 30.19 in 10.0 mi SSW 6.9 mph - N/A   Overcast
4:18 PM 37.4 °F 31.4 °F 37.4 °F 100% 30.19 in 10.0 mi South 8.1 mph - N/A   Mostly Cloudy
4:48 PM 37.4 °F 30.8 °F 37.4 °F 100% 30.18 in 10.0 mi South 9.2 mph - N/A   Overcast
4:58 PM 36.5 °F 29.7 °F 36.5 °F 100% 30.24 in 10.0 mi South 9.2 mph - 0.00 in   Overcast
5:35 PM 37.4 °F 34.9 °F 37.4 °F 100% 30.17 in 10.0 mi SSE 3.5 mph - N/A   Overcast
5:58 PM 36.9 °F - 36.9 °F 100% 30.24 in 10.0 mi SSW 2.3 mph - 0.00 in   Light Drizzle
6:06 PM 37.4 °F 33.8 °F 37.4 °F 100% 30.17 in 10.0 mi SSW 4.6 mph - N/A   Overcast
6:58 PM 36.0 °F 31.1 °F 36.0 °F 100% 30.22 in 10.0 mi SSE 5.8 mph - 0.00 in   Overcast
7:55 PM 37.4 °F 32.1 °F 35.6 °F 93% 30.23 in 10.0 mi SW 6.9 mph - N/A   Scattered Clouds
8:55 PM 35.6 °F 28.6 °F 33.8 °F 93% 30.20 in 10.0 mi SSW 9.2 mph - N/A   Clear
9:55 PM 36.5 °F 27.8 °F 36.3 °F 99% 30.20 in 10.0 mi SSW 13.8 mph - N/A   Overcast
10:48 PM 35.6 °F 26.6 °F 35.6 °F 100% 30.15 in 10.0 mi SW 13.8 mph - N/A   Overcast
10:58 PM 35.1 °F 26.4 °F 35.1 °F 100% 30.22 in 10.0 mi SSW 12.7 mph - 0.00 in   Overcast
10:59 PM 35.6 °F 27.1 °F 35.6 °F 100% 30.15 in 10.0 mi SSW 12.7 mph - N/A   Overcast
11:18 PM 33.8 °F 24.8 °F 33.8 °F 100% 30.15 in 10.0 mi SW 12.7 mph - N/A   Mostly Cloudy
11:34 PM 33.8 °F 24.8 °F 33.8 °F 100% 30.15 in 10.0 mi SW 12.7 mph - N/A   Clear
11:38 PM 33.8 °F 25.3 °F 33.8 °F 100% 30.15 in 10.0 mi SW 11.5 mph - N/A   Clear
11:58 PM 33.8 °F 27.0 °F 33.8 °F 100% 30.23 in 10.0 mi WSW 8.1 mph - 0.00 in   Clear